This is the latest recevied weather packets stored in our database for station/object 7M1JBF-11. If no packets are shown the sender has not sent any weather packets the latest 10 day(s).
| Time | Temp. | Humidity | Pressure | Rain* | Wind** | Luminosity | Snow |
|---|---|---|---|---|---|---|---|
| 1777671410 | 22.78° C | 100% | 1000.1 hPa | 0 mm | - | - | - |
| 1777670809 | 21.67° C | 100% | 1000 hPa | 0 mm | - | - | - |
| 1777670208 | 20.56° C | 100% | 999.7 hPa | 0 mm | - | - | - |
| 1777669606 | 19.44° C | 100% | 999.7 hPa | 0 mm | - | - | - |
| 1777669005 | 18.89° C | 100% | 999.5 hPa | 0 mm | - | - | - |
| 1777668405 | 17.78° C | 100% | 999.5 hPa | 0 mm | - | - | - |
| 1777667802 | 16.67° C | 100% | 999.4 hPa | 0 mm | - | - | - |
| 1777667201 | 15.56° C | 100% | 999.1 hPa | 0 mm | - | - | - |
| 1777666599 | 15° C | 100% | 998.7 hPa | 0 mm | - | - | - |
| 1777665998 | 15° C | 100% | 998.4 hPa | 0 mm | - | - | - |
| 1777665397 | 15° C | 100% | 998.1 hPa | 0 mm | - | - | - |
| 1777664795 | 15° C | 100% | 997.8 hPa | 0 mm | - | - | - |
| 1777663593 | 14.44° C | 100% | 997.3 hPa | 0 mm | - | - | - |
| 1777662991 | 14.44° C | 100% | 997 hPa | 0 mm | - | - | - |
| 1777662390 | 14.44° C | 100% | 996.8 hPa | 0 mm | - | - | - |
| 1777661789 | 14.44° C | 100% | 996.3 hPa | 0 mm | - | - | - |
| 1777661187 | 14.44° C | 100% | 996.3 hPa | 0 mm | - | - | - |
| 1777660586 | 14.44° C | 100% | 996 hPa | 0 mm | - | - | - |
| 1777659985 | 14.44° C | 100% | 995.9 hPa | 0 mm | - | - | - |
| 1777659383 | 14.44° C | 100% | 995.3 hPa | 0 mm | - | - | - |
| 1777658782 | 14.44° C | 100% | 995 hPa | 0 mm | - | - | - |
| 1777658180 | 14.44° C | 100% | 995.2 hPa | 0 mm | - | - | - |
| 1777657579 | 14.44° C | 100% | 995.1 hPa | 0 mm | - | - | - |
| 1777656978 | 14.44° C | 100% | 995.1 hPa | 0 mm | - | - | - |
| 1777655775 | 14.44° C | 100% | 994.7 hPa | 0 mm | - | - | - |
* Rain since midnight (hover to see other rain measurements)
** Current wind speed in m/s (hover to see current wind gust speed)